Date,TemperatureHighF,TemperatureAvgF,TemperatureLowF,DewpointHighF,DewpointAvgF,DewpointLowF,HumidityHigh,HumidityAvg,HumidityLow,PressureMaxIn,PressureMinIn,WindSpeedMaxMPH,WindSpeedAvgMPH,GustSpeedMaxMPH,PrecipitationSumIn
2014-1-1,4,-9,-20,-2,-14,-24,85,79,67,30.38,29.96,12,1,12,0.00
2014-1-2,-13,-20,-31,-21,-26,-36,79,72,60,30.47,30.19,5,-6,6,0.00
2014-1-3,-6,-14,-18,-15,-20,-24,81,73,65,30.19,29.98,14,2,14,0.00
2014-1-4,4,-5,-18,0,-10,-23,84,79,65,30.25,30.06,8,1,12,0.00
2014-1-5,22,14,4,18,10,0,92,85,78,30.23,30.07,6,1,9,0.00
2014-1-6,40,30,21,40,28,17,98,92,77,30.11,29.09,17,4,24,0.01
2014-1-7,23,7,1,17,-1,-10,80,69,57,29.67,29.13,27,5,27,0.00
2014-1-8,14,7,2,3,-2,-7,80,65,49,30.13,29.66,22,3,24,0.00
2014-1-9,13,5,-3,6,-2,-7,89,73,44,30.45,30.11,18,1,23,0.00
2014-1-10,23,11,-3,16,5,-6,87,76,55,30.40,30.15,7,0,8,0.00
2014-1-11,38,26,19,38,24,14,99,92,82,30.16,29.00,11,1,14,0.00
2014-1-12,44,38,32,43,32,22,99,78,59,29.64,28.95,22,4,27,0.20
2014-1-13,38,32,24,29,24,17,82,71,64,29.91,29.65,16,2,18,0.00
2014-1-14,40,36,34,38,34,28,98,93,75,29.75,29.57,9,1,10,0.13
2014-1-15,38,32,27,35,27,20,99,85,67,29.92,29.58,10,1,11,0.03
2014-1-16,34,31,29,30,28,26,97,89,76,29.92,29.84,6,0,6,0.00
2014-1-17,33,31,28,32,30,27,98,96,94,29.90,29.78,6,0,6,0.06
2014-1-18,36,27,12,29,24,10,97,90,69,29.81,29.60,10,1,10,0.05
2014-1-19,26,17,6,24,15,3,95,92,90,29.61,29.19,5,0,6,0.00
2014-1-20,22,9,-6,20,3,-11,94,77,64,29.73,29.18,13,2,18,0.00
2014-1-21,3,-6,-16,-8,-13,-20,84,75,60,30.04,29.72,12,1,13,0.00
2014-1-22,3,-8,-20,-2,-12,-24,86,79,73,30.03,29.68,14,3,17,0.00
2014-1-23,8,1,-6,-2,-5,-10,86,76,63,29.92,29.68,15,3,17,0.00
2014-1-24,7,-5,-17,-5,-11,-21,86,76,56,30.02,29.83,10,-2,12,0.00
2014-1-25,21,11,-2,19,6,-8,94,81,71,29.83,29.14,15,1,17,0.00
2014-1-26,20,4,-9,19,-1,-15,94,76,61,29.81,29.06,24,2,24,0.00
2014-1-27,20,4,-12,17,-1,-16,90,79,65,29.81,29.31,21,2,24,0.00
2014-1-28,6,-2,-12,-3,-10,-16,86,69,49,30.06,29.73,20,2,20,0.00
2014-1-29,16,0,-21,3,-8,-26,86,70,46,30.04,29.73,15,2,18,0.00
2014-1-30,19,9,-4,6,2,-7,88,73,51,30.22,29.86,13,1,13,0.01
2014-1-31,31,21,12,20,14,5,91,71,57,30.03,29.73,20,2,21,0.00
2014-2-1,31,21,6,24,12,3,94,71,48,30.22,29.91,12,1,14,0.00
2014-2-2,32,27,22,28,24,19,96,90,80,29.97,29.73,10,1,14,0.01
2014-2-3,22,11,-7,19,6,-11,89,81,65,30.25,29.97,14,1,14,0.00
2014-2-4,21,6,-8,15,2,-11,90,83,67,30.31,30.23,16,1,16,0.00
2014-2-5,14,6,-1,8,2,-4,89,81,73,30.28,29.86,13,1,13,0.00
2014-2-6,16,6,-8,4,-2,-12,86,71,52,30.11,29.92,12,2,13,0.00
2014-2-7,21,12,0,9,5,-4,88,72,56,29.99,29.86,19,2,23,0.00
2014-2-8,18,12,6,8,4,1,85,69,51,30.06,29.91,21,2,22,0.00
2014-2-9,17,2,-13,3,-4,-16,87,77,51,30.11,29.94,8,0,12,0.00
2014-2-10,15,5,-6,3,-2,-10,87,75,51,30.05,29.89,10,1,12,0.00
2014-2-11,9,0,-11,-1,-8,-15,85,70,49,30.22,30.04,18,2,18,0.00
2014-2-12,23,8,-3,2,-2,-8,80,64,34,30.39,30.22,14,2,14,0.00
2014-2-13,28,14,-5,22,8,-8,92,76,52,30.27,29.66,9,1,11,0.00
2014-2-14,26,22,17,24,20,14,95,92,86,29.66,28.84,17,5,19,0.00
2014-2-15,20,16,8,16,12,6,92,85,76,29.87,29.46,11,1,13,0.00
2014-2-16,18,15,11,15,11,5,92,84,73,29.68,29.39,21,6,25,0.00
2014-2-17,17,10,-7,6,1,-11,84,68,47,30.24,29.68,25,5,25,0.00
2014-2-18,22,5,-17,14,-1,-21,87,77,50,30.28,29.98,12,1,14,0.00
2014-2-19,32,22,8,28,18,6,95,86,74,29.99,29.71,14,2,14,0.00
2014-2-20,37,29,13,29,25,10,96,86,68,30.13,29.70,12,2,13,0.01
2014-2-21,31,19,0,28,16,-4,96,88,72,30.20,29.66,20,2,24,0.00
2014-2-22,41,34,28,32,27,21,97,78,46,29.68,29.54,23,3,26,0.31
2014-2-23,34,27,10,27,17,7,89,66,45,29.77,29.63,22,2,22,0.01
2014-2-24,26,15,5,17,10,2,91,81,52,29.67,29.54,15,2,15,0.00
2014-2-25,13,7,-1,5,-1,-4,87,71,49,29.73,29.65,18,2,23,0.00
2014-2-26,16,2,-17,10,-4,-21,88,75,49,29.75,29.62,8,1,12,0.00
2014-2-27,14,-1,-20,7,-6,-24,87,78,51,29.73,29.56,9,1,9,0.00
2014-2-28,16,1,-12,6,-7,-16,91,71,41,30.34,29.62,21,2,21,0.00
2014-3-1,16,3,-18,12,-3,-22,90,78,42,30.36,29.89,14,1,19,0.00
2014-3-2,16,8,-15,12,-1,-19,91,69,41,30.03,29.87,18,2,18,0.00
2014-3-3,7,-7,-20,-1,-15,-25,83,68,43,30.14,29.93,17,2,20,0.01
2014-3-4,13,-4,-21,0,-13,-25,82,68,48,30.31,30.11,14,2,18,0.00
2014-3-5,10,-7,-26,-10,-18,-31,81,62,34,30.43,30.31,13,2,15,0.00
2014-3-6,21,2,-17,-5,-13,-22,82,54,22,30.52,30.35,12,2,14,0.00
2014-3-7,40,14,-16,11,-5,-21,81,50,15,30.35,29.79,17,2,19,0.01
2014-3-8,33,26,13,24,14,8,80,60,45,29.81,29.66,16,3,19,0.00
2014-3-9,22,13,3,9,2,-3,89,64,37,29.83,29.76,16,2,19,0.00
2014-3-10,30,14,-3,14,6,-6,85,71,47,29.78,29.57,9,1,9,0.00
2014-3-11,33,28,22,30,23,14,93,85,65,29.57,29.39,12,2,15,0.04
2014-3-12,29,21,12,25,14,2,89,76,48,29.74,29.56,12,3,17,0.00
2014-3-13,13,10,8,10,6,2,89,86,71,29.59,29.33,21,6,24,0.00
2014-3-14,26,14,-4,19,4,-8,90,69,38,29.91,29.59,13,2,15,0.04
2014-3-15,38,30,21,35,28,18,96,91,84,29.72,29.50,11,2,17,0.10
2014-3-16,27,16,5,24,7,-7,90,69,47,29.91,29.59,22,4,28,0.00
2014-3-17,16,7,-6,0,-7,-14,72,53,37,30.03,29.91,17,3,23,0.00
2014-3-18,26,9,-8,6,-2,-12,86,62,33,30.33,30.03,15,2,17,0.00
2014-3-19,30,15,-8,18,2,-12,86,59,33,30.38,30.03,13,1,15,0.00
2014-3-20,31,28,24,30,26,19,96,93,71,30.03,29.39,13,2,15,0.07
2014-3-21,35,30,26,30,26,19,98,85,67,29.76,29.36,20,3,21,0.17
2014-3-22,27,21,6,22,16,3,94,80,58,29.86,29.60,10,1,12,0.02
2014-3-23,20,13,1,16,5,-8,94,73,51,29.97,29.65,19,4,20,0.00
2014-3-24,16,5,-7,2,-4,-12,84,66,47,29.98,29.87,19,3,21,0.00
2014-3-25,27,6,-17,14,-2,-22,86,70,41,30.03,29.91,20,2,20,0.01
2014-3-26,30,14,-8,18,6,-11,86,73,53,30.04,29.65,23,4,23,0.00
2014-3-27,30,19,8,18,4,-3,89,54,34,30.09,29.68,26,6,30,0.00
2014-3-28,33,27,18,32,21,8,96,80,58,30.10,29.77,12,1,12,0.00
2014-3-29,40,33,24,34,25,18,97,72,44,30.33,29.82,13,2,13,0.09
2014-3-30,29,27,22,27,23,17,95,87,63,30.30,30.02,16,3,17,0.01
2014-3-31,36,30,26,28,26,21,94,84,71,30.16,29.99,17,4,20,0.21
2014-4-1,47,32,16,20,15,7,85,54,20,30.19,30.04,13,2,15,0.07
2014-4-2,41,28,8,26,17,6,91,67,39,30.14,29.96,13,2,16,0.00
2014-4-3,36,31,26,29,24,18,91,76,55,30.11,29.95,12,2,14,0.02
2014-4-4,46,33,14,27,20,12,89,62,36,30.18,29.92,12,2,19,0.00
2014-4-5,39,34,32,34,32,26,97,92,60,29.92,29.54,19,3,21,0.21
2014-4-6,43,35,29,32,26,23,97,71,45,29.96,29.53,24,3,28,0.04
2014-4-7,59,42,27,32,28,24,89,62,27,30.12,29.96,13,1,13,0.00
2014-4-8,41,38,33,41,35,27,99,89,63,29.96,29.15,16,3,18,0.69
2014-4-9,40,34,25,40,21,8,99,63,30,29.77,29.16,22,5,24,0.02
2014-4-10,51,36,15,28,18,9,82,50,32,29.91,29.65,19,3,19,0.00
2014-4-11,54,44,29,40,31,26,90,62,37,30.01,29.63,18,3,19,0.00
2014-4-12,53,36,23,34,26,13,95,69,35,30.22,29.91,22,2,24,0.00
2014-4-13,37,29,18,32,23,14,96,80,41,30.36,30.01,13,2,15,0.04
2014-4-14,54,42,34,48,40,32,98,94,79,30.01,29.59,11,2,13,0.47
2014-4-15,56,49,40,54,48,38,99,95,89,29.69,29.39,14,3,20,0.15
2014-4-16,40,26,17,38,18,10,96,73,46,30.56,29.54,20,4,23,0.20
2014-4-17,44,29,13,20,15,10,91,60,28,30.76,30.55,11,1,12,0.01
2014-4-18,49,38,26,28,22,16,78,53,29,30.62,30.12,16,2,16,0.00
2014-4-19,42,36,33,36,32,28,97,85,64,30.32,30.01,19,3,22,0.09
2014-4-20,51,38,28,29,19,8,80,52,18,30.48,30.16,10,2,11,0.00
2014-4-21,65,45,30,38,31,24,88,63,32,30.16,29.70,17,1,19,0.00
2014-4-22,48,39,29,42,35,28,96,88,60,29.78,29.48,10,1,13,0.14
2014-4-23,42,38,34,41,37,32,98,94,89,29.54,29.39,12,2,14,0.54
2014-4-24,35,34,32,34,32,30,97,94,90,29.87,29.52,15,4,15,0.39
2014-4-25,46,36,29,35,31,28,95,83,58,29.92,29.85,15,2,15,0.00
2014-4-26,50,38,26,35,29,25,98,73,41,29.91,29.82,7,1,8,0.01
2014-4-27,50,42,35,36,33,30,90,74,48,30.05,29.86,22,3,22,0.01
2014-4-28,47,41,36,38,35,32,91,79,62,30.39,30.03,16,3,18,0.02
2014-4-29,48,40,31,32,30,27,88,67,47,30.58,30.39,17,4,17,0.00
2014-4-30,54,40,29,32,28,23,92,64,34,30.58,30.16,14,2,14,0.00
2014-5-1,44,41,38,43,39,31,98,91,61,30.16,29.57,12,2,14,0.32
2014-5-2,56,48,41,45,41,38,99,78,53,29.62,29.50,19,2,19,0.00
2014-5-3,58,48,37,44,41,35,96,78,52,29.74,29.63,9,1,10,0.00
2014-5-4,52,44,38,47,42,37,98,92,79,29.71,29.52,11,1,13,0.32
2014-5-5,55,46,39,45,39,36,96,80,50,29.70,29.61,16,3,20,0.05
2014-5-6,57,48,36,40,34,26,93,63,31,29.93,29.69,18,3,21,0.01
2014-5-7,61,47,32,35,30,24,95,59,26,30.11,29.93,13,2,15,0.00
2014-5-8,54,42,29,33,27,21,96,60,31,30.24,30.11,19,3,20,0.00
2014-5-9,63,47,27,45,30,25,93,58,26,30.27,29.92,13,2,16,0.01
2014-5-10,71,55,46,62,50,43,98,86,49,29.94,29.52,15,1,17,0.31
2014-5-11,59,54,47,53,47,42,97,78,55,29.94,29.61,13,1,17,0.04
2014-5-12,48,43,37,46,39,34,97,86,70,30.25,29.94,17,2,17,0.06
2014-5-13,64,47,30,39,32,25,98,65,27,30.31,30.21,9,1,10,0.00
2014-5-14,49,44,36,45,41,34,94,89,77,30.25,30.19,12,1,15,0.05
2014-5-15,77,61,45,59,52,42,94,74,51,30.21,30.04,14,3,17,0.00
2014-5-16,78,66,57,61,57,53,95,74,49,30.12,30.02,21,4,29,0.00
2014-5-17,63,58,52,57,54,51,97,88,74,30.07,29.89,22,4,23,0.32
2014-5-18,64,54,48,53,49,45,99,85,51,30.09,30.01,9,1,9,0.09
2014-5-19,50,49,48,49,48,46,97,95,89,30.04,29.97,12,2,14,0.51
2014-5-20,53,50,46,52,48,44,97,95,90,30.02,29.96,13,2,14,0.27
2014-5-21,65,56,50,55,52,49,98,88,65,30.00,29.94,10,0,12,0.02
2014-5-22,64,56,51,56,54,51,99,91,68,29.95,29.87,11,1,11,0.24
2014-5-23,63,54,47,51,48,45,99,80,57,30.01,29.94,10,-7,11,0.01
2014-5-24,56,50,48,49,46,45,93,88,72,30.06,30.00,4,0,4,0.00
2014-5-25,66,55,47,50,47,44,91,76,51,30.06,29.83,11,1,11,0.00
2014-5-26,71,58,45,59,50,42,98,76,47,29.89,29.64,16,3,21,0.15
2014-5-27,53,48,42,43,42,40,96,80,64,30.08,29.88,8,1,10,0.02
2014-5-28,67,52,38,40,36,28,96,60,28,30.17,30.08,12,2,14,0.00
2014-5-29,77,59,34,47,37,28,96,53,18,30.17,29.98,11,1,13,0.00
2014-5-30,68,55,47,54,49,44,96,80,50,30.10,29.94,15,1,15,0.18
2014-5-31,69,58,49,52,49,46,96,75,51,30.28,30.10,12,2,16,0.00
2014-6-1,76,60,40,54,46,39,98,66,31,30.30,30.06,14,1,14,0.00
2014-6-2,76,64,49,61,54,47,93,72,46,30.06,29.89,9,1,10,0.00
2014-6-3,84,70,60,59,55,45,94,63,38,29.97,29.82,18,3,20,0.00
2014-6-4,69,60,50,56,52,42,96,75,51,29.87,29.74,17,2,18,0.04
2014-6-5,65,59,55,59,56,54,98,92,80,29.77,29.71,8,1,8,0.05
2014-6-6,62,58,57,58,56,55,98,92,80,29.75,29.65,14,2,17,0.32
2014-6-7,78,65,54,60,56,53,98,75,45,29.86,29.73,15,2,16,0.02
2014-6-8,85,68,50,62,56,49,99,71,35,29.91,29.77,8,0,9,0.00
2014-6-9,78,67,53,62,55,40,97,69,26,30.00,29.81,16,2,16,0.00
2014-6-10,74,59,47,56,50,45,97,75,37,30.09,29.99,9,0,10,0.00
2014-6-11,80,62,43,54,48,42,98,65,29,30.17,30.06,8,1,9,0.00
2014-6-12,73,58,48,56,51,46,96,82,40,30.15,30.09,15,2,19,0.22
2014-6-13,64,55,50,54,51,48,96,87,62,30.10,29.93,16,2,16,0.23
2014-6-14,65,57,52,61,56,51,98,94,84,29.93,29.75,11,1,12,0.34
2014-6-15,66,58,48,54,51,46,94,80,53,30.02,29.83,21,4,27,0.01
2014-6-16,73,58,42,50,45,41,98,67,34,30.10,30.00,16,2,16,0.00
2014-6-17,81,66,52,60,54,49,93,67,39,30.03,29.79,9,1,11,0.00
2014-6-18,72,64,58,66,60,56,98,87,70,29.79,29.67,10,1,12,0.41
2014-6-19,66,59,50,56,47,41,97,65,47,29.90,29.75,20,4,23,0.00
2014-6-20,60,52,44,48,44,40,90,74,60,29.86,29.82,17,3,23,0.00
2014-6-21,63,57,45,51,48,43,96,74,59,29.86,29.81,11,2,14,0.00
2014-6-22,76,62,49,57,49,42,95,67,33,30.00,29.86,10,1,13,0.02
2014-6-23,81,64,43,56,50,42,97,66,29,30.08,29.98,10,1,11,0.00
2014-6-24,82,67,56,67,61,53,98,81,50,30.01,29.82,12,1,13,0.63
2014-6-25,76,68,61,65,60,55,99,79,49,29.98,29.81,10,1,11,0.48
2014-6-26,76,65,53,60,55,49,97,74,41,29.99,29.91,10,1,10,0.00
2014-6-27,85,65,48,59,51,42,99,67,23,30.14,29.99,8,0,9,0.00
2014-6-28,87,68,48,62,54,46,97,67,27,30.20,30.11,7,1,12,0.00
2014-6-29,91,72,53,64,57,51,97,66,27,30.15,29.94,8,0,9,0.00
2014-6-30,89,74,56,73,64,54,97,75,50,29.96,29.75,11,1,14,0.00
2014-7-1,89,78,66,74,69,64,97,75,50,29.76,29.58,11,1,13,0.00
2014-7-2,88,79,70,71,67,62,94,69,43,29.78,29.60,16,2,16,0.00
2014-7-3,85,75,66,69,65,62,96,74,47,29.91,29.76,16,1,17,0.00
2014-7-4,70,65,58,66,62,56,98,90,67,29.97,29.84,6,0,7,0.49
2014-7-5,60,56,49,57,48,41,97,76,51,29.94,29.60,25,4,30,0.29
2014-7-6,70,61,45,61,55,44,96,82,67,29.68,29.64,14,1,16,0.01
2014-7-7,68,64,60,64,62,60,99,94,79,29.68,29.61,10,0,13,0.33
2014-7-8,83,72,63,68,64,60,99,79,47,29.62,29.57,14,2,16,0.02
2014-7-9,80,73,66,68,62,56,95,70,46,29.81,29.48,17,2,19,0.03
2014-7-10,72,64,52,57,53,49,93,68,47,30.11,29.80,16,2,20,0.00
2014-7-11,78,63,47,57,51,46,98,70,35,30.17,30.08,8,1,12,0.00
2014-7-12,80,66,50,60,55,49,96,70,42,30.13,30.01,11,1,12,0.00
2014-7-13,80,67,52,70,62,51,97,86,60,30.01,29.69,11,1,13,0.69
2014-7-14,80,71,59,69,59,50,99,70,39,29.80,29.68,16,2,18,0.02
2014-7-15,82,68,51,69,58,49,97,73,45,29.82,29.70,10,1,11,0.10
2014-7-16,77,71,66,71,68,66,99,92,73,29.76,29.70,10,1,12,0.27
2014-7-17,75,66,57,66,57,53,99,77,49,29.91,29.75,12,2,16,0.24
2014-7-18,77,66,54,60,55,50,96,73,41,30.15,29.91,14,1,15,0.00
2014-7-19,83,67,52,65,58,51,98,76,43,30.24,30.15,7,0,7,0.00
2014-7-20,78,67,55,67,60,54,99,81,57,30.22,30.13,9,1,10,0.00
2014-7-21,83,71,61,62,59,55,94,70,39,30.17,30.03,9,1,10,0.00
2014-7-22,86,73,57,67,63,56,97,73,48,30.04,29.79,16,2,16,0.00
2014-7-23,82,72,63,71,65,54,90,79,65,29.79,29.62,13,1,15,0.04
2014-7-24,72,61,51,54,49,45,92,66,40,29.87,29.77,13,2,14,0.00
2014-7-25,78,63,48,60,52,46,97,71,37,29.85,29.75,12,1,16,0.00
2014-7-26,78,66,59,61,58,55,96,76,47,29.80,29.72,18,2,18,0.08
2014-7-27,78,65,57,64,61,56,99,88,54,29.77,29.61,17,1,17,0.90
2014-7-28,70,66,62,66,64,60,99,94,85,29.70,29.46,11,1,11,0.45
2014-7-29,69,62,54,66,59,53,99,88,63,29.91,29.39,13,1,15,0.35
2014-7-30,73,61,49,62,55,48,100,84,53,30.03,29.90,9,0,10,0.00
2014-7-31,77,65,58,63,59,54,98,85,48,30.08,29.98,12,1,12,0.43
2014-8-1,78,65,53,63,59,53,100,83,52,30.17,30.08,10,1,13,0.05
2014-8-2,82,68,55,67,60,54,99,80,49,30.17,30.04,9,0,10,0.01
2014-8-3,83,70,60,67,63,59,98,81,49,30.08,29.98,8,0,10,0.36
2014-8-4,82,68,59,70,63,58,100,85,49,30.01,29.90,9,0,12,0.36
2014-8-5,78,67,58,67,62,57,99,87,55,29.96,29.86,8,1,10,0.09
2014-8-6,76,64,54,61,54,45,98,73,35,29.88,29.75,9,1,12,0.04
2014-8-7,78,63,51,61,55,50,96,78,47,29.86,29.76,10,1,11,0.01
2014-8-8,76,64,54,64,57,52,97,79,52,29.97,29.85,17,2,20,0.01
2014-8-9,77,66,54,60,56,52,94,73,45,30.07,29.97,12,2,16,0.00
2014-8-10,84,66,50,61,55,49,98,73,34,30.10,30.03,6,0,7,0.00
2014-8-11,81,66,55,62,57,54,99,77,42,30.14,30.07,10,1,10,0.00
2014-8-12,82,67,51,63,57,50,98,74,40,30.14,30.03,13,1,15,0.00
2014-8-13,73,62,56,61,57,54,96,83,57,30.07,29.88,14,1,16,0.04
2014-8-14,66,60,55,65,59,54,99,96,88,29.89,29.71,16,3,19,0.88
2014-8-15,70,60,50,60,54,50,99,84,51,29.85,29.78,10,1,12,0.00
2014-8-16,67,59,53,61,56,52,98,90,69,29.85,29.80,9,0,9,0.10
2014-8-17,65,58,55,59,56,54,98,92,74,29.82,29.70,8,1,9,0.08
2014-8-18,69,60,54,59,56,53,99,87,64,29.78,29.68,13,2,14,0.00
2014-8-19,75,64,54,60,56,53,97,80,52,29.90,29.77,10,2,13,0.00
2014-8-20,80,65,52,63,57,51,99,78,49,30.08,29.90,9,1,11,0.00
2014-8-21,74,63,52,63,57,51,99,83,60,30.15,30.08,7,0,7,0.00
2014-8-22,73,63,54,62,58,53,98,85,60,30.19,30.12,8,0,8,0.00
2014-8-23,77,64,55,64,58,54,99,83,51,30.16,30.07,9,0,9,0.01
2014-8-24,86,70,57,64,59,56,97,74,39,30.09,29.99,11,1,11,0.00
2014-8-25,88,71,58,68,61,56,98,75,38,30.09,30.00,7,1,10,0.00
2014-8-26,84,70,55,65,60,54,98,74,46,30.06,29.81,17,2,20,0.01
2014-8-27,76,70,62,68,61,56,87,73,59,29.83,29.76,13,2,16,0.01
2014-8-28,66,59,50,59,54,47,97,86,66,29.97,29.74,17,3,17,0.06
2014-8-29,72,56,43,53,47,42,96,75,39,30.17,29.97,11,1,13,0.01
2014-8-30,74,59,41,62,53,40,98,83,60,30.17,29.92,10,1,12,0.00
2014-8-31,72,66,60,69,64,59,99,93,84,29.92,29.78,8,1,10,0.11
2014-9-1,73,67,63,68,65,62,97,92,82,29.94,29.84,9,0,10,0.04
2014-9-2,80,71,64,70,67,63,98,88,70,29.91,29.63,11,2,15,0.23
2014-9-3,77,67,56,68,60,54,99,81,46,29.93,29.59,14,2,19,0.39
2014-9-4,77,64,50,64,58,50,98,82,58,30.00,29.93,10,1,13,0.01
2014-9-5,82,70,59,68,64,58,98,82,58,30.04,29.74,11,1,11,0.01
2014-9-6,76,62,50,68,59,45,97,89,74,29.86,29.65,14,1,17,0.44
2014-9-7,66,52,40,52,45,39,99,78,43,30.16,29.85,12,1,19,0.00
2014-9-8,68,50,37,50,41,35,98,76,34,30.38,30.16,10,1,10,0.01
2014-9-9,73,56,40,56,48,40,98,79,46,30.39,30.17,11,1,13,0.00
2014-9-10,75,57,43,58,50,42,97,80,48,30.17,29.96,10,1,12,0.01
2014-9-11,64,56,51,61,55,50,97,94,81,29.96,29.55,14,2,21,0.22
2014-9-12,58,51,39,50,41,37,92,69,47,30.25,29.72,24,3,24,0.01
2014-9-13,53,44,33,48,40,32,98,85,58,30.37,30.02,6,0,8,0.23
2014-9-14,52,49,43,50,45,41,98,87,73,30.17,29.98,12,1,16,0.38
2014-9-15,59,48,40,47,42,39,96,81,51,30.14,29.99,10,0,12,0.00
2014-9-16,63,50,41,51,46,40,98,87,57,29.99,29.80,11,1,13,0.05
2014-9-17,56,47,40,46,42,36,98,83,53,29.94,29.82,8,0,11,0.08
2014-9-18,51,43,30,45,36,28,97,81,49,30.12,29.81,12,2,15,0.29
2014-9-19,53,39,27,34,29,22,97,72,31,30.32,30.12,12,1,13,0.01
2014-9-20,54,46,38,52,42,33,97,84,71,30.23,29.87,7,1,10,0.04
2014-9-21,76,64,53,63,58,52,97,82,59,29.87,29.54,14,2,16,0.02
2014-9-22,66,58,46,62,54,41,98,88,70,29.80,29.36,20,2,23,0.32
2014-9-23,52,46,40,47,41,36,94,81,58,30.37,29.80,11,1,16,0.04
2014-9-24,65,46,32,45,39,31,99,80,39,30.59,30.37,10,1,13,0.01
2014-9-25,74,55,37,58,49,36,98,82,53,30.42,30.16,12,1,14,0.00
2014-9-26,78,59,44,60,52,44,99,81,47,30.21,30.02,9,0,11,0.00
2014-9-27,76,61,50,57,54,49,98,78,44,30.13,30.00,13,1,17,0.01
2014-9-28,82,65,49,63,56,48,99,75,40,30.04,29.83,13,1,17,0.00
2014-9-29,66,49,39,58,45,38,94,85,72,30.18,29.89,11,2,15,0.13
2014-9-30,48,43,38,46,42,37,97,94,88,30.16,30.06,7,0,8,0.14
2014-10-1,63,48,38,47,42,36,97,83,45,30.24,30.12,6,0,7,0.00
2014-10-2,60,46,38,45,40,35,99,83,45,30.31,30.18,6,0,8,0.01
2014-10-3,60,45,34,48,41,33,99,88,61,30.22,29.94,6,0,8,0.00
2014-10-4,60,51,40,59,50,39,98,96,93,29.94,29.62,11,1,15,0.09
2014-10-5,60,53,37,60,51,37,98,94,72,29.83,29.50,15,2,23,0.91
2014-10-6,61,45,33,47,40,32,99,83,47,30.13,29.83,9,0,14,0.02
2014-10-7,58,49,35,54,46,34,99,92,77,30.14,29.97,18,2,21,0.10
2014-10-8,60,54,47,57,53,46,97,95,90,29.99,29.51,23,2,24,0.43
2014-10-9,49,45,41,46,39,33,96,80,57,29.71,29.59,23,2,23,0.03
2014-10-10,52,46,37,41,39,36,94,76,65,30.00,29.66,17,2,19,0.00
2014-10-11,52,42,31,42,37,30,99,85,58,30.07,29.97,10,0,11,0.00
2014-10-12,55,41,31,39,34,30,98,81,47,30.19,30.02,11,1,13,0.01
2014-10-13,64,44,30,41,35,29,97,76,36,30.23,30.11,12,0,12,0.01
2014-10-14,74,52,33,59,46,32,97,84,57,30.14,29.92,12,0,14,0.00
2014-10-15,67,60,54,63,57,53,98,90,77,30.03,29.88,10,0,11,0.11
2014-10-16,57,56,54,57,55,53,99,98,97,30.00,29.83,8,1,9,0.07
2014-10-17,65,58,51,63,57,50,99,96,84,29.83,29.37,18,1,20,0.89
2014-10-18,62,54,45,56,52,43,98,93,79,29.54,29.39,13,1,15,0.48
2014-10-19,45,40,36,43,34,30,94,78,64,29.74,29.44,15,3,16,0.53
2014-10-20,45,36,28,31,28,26,93,74,49,29.94,29.72,15,2,20,0.00
2014-10-21,48,36,25,34,29,23,98,80,47,30.30,29.94,5,0,6,0.00
2014-10-22,50,41,30,40,34,29,96,78,60,30.40,30.29,12,1,14,0.00
2014-10-23,48,44,42,40,36,32,80,74,59,30.30,29.95,11,1,11,0.00
2014-10-24,47,43,40,41,37,33,95,80,60,29.95,29.68,11,1,11,0.33
2014-10-25,48,43,39,41,38,35,97,84,63,29.68,29.44,6,0,7,0.04
2014-10-26,45,42,39,43,40,36,98,94,88,29.48,29.34,10,1,10,0.21
2014-10-27,46,42,38,38,36,35,95,81,66,29.87,29.47,20,4,22,0.01
2014-10-28,50,44,40,42,37,34,93,78,65,30.04,29.87,14,2,18,0.02
2014-10-29,53,48,43,52,46,41,98,93,77,29.90,29.64,10,1,12,0.22
2014-10-30,48,43,38,41,35,30,95,74,55,29.93,29.65,12,1,15,0.00
2014-10-31,42,38,36,34,31,29,89,76,63,30.13,29.92,4,0,5,0.00
2014-11-1,40,37,34,32,29,26,83,73,57,30.15,30.03,11,1,12,0.00
2014-11-2,35,32,29,29,27,25,95,83,72,30.05,29.48,23,6,23,0.00
2014-11-3,37,33,30,28,25,24,91,73,61,29.89,29.45,25,7,34,0.00
2014-11-4,42,35,25,33,28,21,94,77,57,30.09,29.89,9,1,10,0.07
2014-11-5,50,41,34,45,38,32,97,88,68,29.93,29.73,17,2,18,0.35
2014-11-6,46,41,38,37,35,33,90,79,60,29.98,29.73,9,0,10,0.00
2014-11-7,38,33,28,35,31,23,97,93,81,29.74,29.44,26,4,26,0.58
2014-11-8,34,28,25,26,23,21,92,80,69,29.82,29.47,20,3,22,0.02
2014-11-9,38,32,27,33,28,24,94,86,73,29.92,29.76,9,1,11,0.06
2014-11-10,44,32,26,35,28,24,95,86,61,30.21,29.92,12,0,15,0.00
2014-11-11,37,32,27,32,29,23,95,86,81,30.21,30.03,8,0,10,0.02
2014-11-12,38,35,33,37,34,31,98,95,87,30.04,29.79,11,1,12,0.13
2014-11-13,39,35,30,32,23,16,89,63,39,29.88,29.83,16,2,18,0.00
2014-11-14,36,30,22,25,21,10,84,69,44,29.89,29.74,20,2,20,0.00
2014-11-15,31,24,18,18,14,11,85,65,48,30.13,29.88,14,1,17,0.00
2014-11-16,32,25,14,29,22,12,94,89,73,30.17,30.02,9,0,10,0.00
2014-11-17,32,30,28,30,28,26,96,94,88,30.03,29.35,11,1,11,0.01
2014-11-18,34,28,21,32,22,12,98,80,57,29.44,29.23,27,3,27,0.06
2014-11-19,27,21,10,16,13,7,90,72,57,29.97,29.43,18,3,22,0.00
2014-11-20,30,20,10,24,16,7,93,83,64,29.95,29.63,8,0,11,0.00
2014-11-21,24,16,7,19,10,5,93,78,58,30.10,29.64,16,2,26,0.00
2014-11-22,31,20,6,28,16,4,94,86,71,30.13,29.73,11,0,14,0.00
2014-11-23,41,35,31,34,32,28,94,88,73,30.08,29.73,11,0,12,0.11
2014-11-24,55,43,34,52,42,32,99,95,87,30.06,29.34,14,2,18,0.58
2014-11-25,55,46,40,52,35,29,92,66,55,29.85,29.36,29,4,33,0.01
2014-11-26,40,32,24,29,22,16,92,68,53,30.19,29.85,18,2,19,0.00
2014-11-27,25,20,7,22,17,4,94,87,75,30.00,29.82,15,2,16,0.00
2014-11-28,20,13,5,15,10,2,92,87,75,30.05,29.96,4,0,5,0.01
2014-11-29,21,10,0,14,6,-3,92,87,70,30.21,30.04,9,0,9,0.01
2014-11-30,36,28,12,36,26,10,97,93,87,30.12,29.74,8,1,13,0.01
2014-12-1,37,27,11,36,24,8,98,89,73,30.40,29.73,12,2,14,0.14
2014-12-2,12,7,3,8,-1,-7,89,70,47,30.78,30.40,15,1,15,0.00
2014-12-3,31,22,11,30,20,3,97,91,68,30.55,29.63,11,1,12,0.00
2014-12-4,31,17,-4,30,11,-8,95,77,47,30.53,29.65,18,2,22,0.00
2014-12-5,15,2,-12,6,-3,-16,88,79,60,30.67,30.44,8,0,10,0.00
2014-12-6,27,21,12,26,18,6,95,89,80,30.44,30.14,9,0,10,0.00
2014-12-7,25,8,-4,20,-1,-9,87,69,45,30.73,30.21,21,3,21,0.00
2014-12-8,13,2,-10,2,-5,-14,85,75,60,30.78,30.58,9,0,9,0.00
2014-12-9,28,21,8,27,18,2,96,88,78,30.58,30.14,6,0,7,0.00
2014-12-10,34,32,27,31,30,26,96,92,85,30.14,29.68,16,3,25,0.01
2014-12-11,37,36,34,37,35,31,97,95,85,29.76,29.60,22,2,23,0.48
2014-12-12,36,35,33,35,34,32,97,96,94,29.84,29.69,13,1,13,0.18
2014-12-13,37,35,33,35,34,32,97,96,93,29.70,29.65,6,1,10,0.09
2014-12-14,35,34,30,34,32,27,98,95,89,29.82,29.70,12,1,14,0.02
2014-12-15,30,27,24,28,24,22,91,87,82,30.12,29.82,16,3,19,0.00
2014-12-16,27,26,24,25,24,22,96,92,90,30.12,29.99,10,1,11,0.00
2014-12-17,32,29,27,31,28,25,97,96,94,29.99,29.72,4,0,5,0.01
2014-12-18,29,27,24,28,25,21,96,92,88,29.73,29.59,16,4,19,0.01
2014-12-19,28,22,10,22,18,8,92,82,70,30.15,29.70,14,3,16,0.02
2014-12-20,19,13,7,16,10,4,94,89,82,30.36,30.15,5,0,7,0.00
2014-12-21,21,18,13,19,16,12,93,92,88,30.35,30.31,10,0,11,0.00
2014-12-22,25,23,21,24,21,19,94,92,86,30.40,30.34,5,0,5,0.00
2014-12-23,33,29,25,31,28,24,95,94,92,30.35,30.25,9,1,9,0.01
2014-12-24,34,32,30,34,31,28,98,95,91,30.25,29.53,11,3,14,0.18
2014-12-25,42,38,33,40,34,27,99,86,66,29.53,29.17,27,3,28,0.79
2014-12-26,40,36,33,28,24,22,75,63,49,29.87,29.46,24,4,28,0.00
2014-12-27,37,32,26,28,23,19,84,70,48,30.01,29.82,15,1,17,0.00
2014-12-28,39,31,27,38,28,19,98,89,69,29.82,29.47,16,2,18,0.14
2014-12-29,27,12,-3,19,6,-6,94,76,59,30.13,29.79,16,2,19,0.00
2014-12-30,4,-4,-12,-6,-10,-16,87,76,55,30.24,30.11,13,1,14,0.00
2014-12-31,8,-3,-15,0,-9,-19,86,76,58,30.15,29.87,12,1,12,0.00
2015-1-1,22,15,5,16,10,-1,89,79,64,29.87,29.63,16,2,17,0.00
2015-1-2,21,12,-2,17,7,-9,93,82,66,30.29,29.61,14,2,19,0.00